Tracking 17556 objects as of 7-February-2016
HD Live streaming from Space Station
objects crossing your sky now

GLOBALSTAR M086

Track GLOBALSTAR M086 now!
10-day predictions
GLOBALSTAR M086 is classified as:


NORAD ID: 38045
Int'l Code: 2011-080F
Perigee: 1,420.4 km
Apogee: 1,421.1 km
Inclination: 52.0 °
Period: 114.1 minutes
Semi major axis: 7791 km
RCS: 4.511 m2 (large)
Launch date: December 28, 2011
Source: Globalstar (GLOB)
Launch site: TYURATAM MISSILE AND SPACE COMPLEX (TTMTR)
Your satellite tracking list
Your tracking list is empty





NASA's NSSDC Master Catalog

Two Line Element Set (TLE):
1 38045U 11080F   16037.37502818 -.00000092  00000-0  67184-4 0  9993
2 38045  51.9914 330.7669 0000422  42.4680 112.2367 12.6226371019199
Source of the keplerian elements: AFSPC

N2YO: 285